Location: Unspecified
(57.6483°N, 3.3184°W)
Time: 10:22:25
(UTC+00:00)

BlueWalker 3 - Pass Details

Date: 02 February 2026
Orbit: 450 x 461 km, 53.2° (Epoch: 11 February)

Event Time Altitude Azimuth Distance (km) Brightness Sun altitude
Rises 18:18:29 0° 266° (W) 2,461 7.4 -12.9°
Reaches altitude 10° 18:20:42 10° 258° (WSW) 1,587 6.0 -13.2°
Maximum altitude 18:24:01 37° 189° (S) 713 2.8 -13.6°
Enters shadow 18:26:27 16° 127° (SE) 1,260 3.6 -13.9°
